AMC-3

Last updated on Thu Jul 03 2025 00:02:44 GMT+0000 (Coordinated Universal Time)

1 24936U 97050A 25183.55211250 -.00000258 00000+0 00000+0 0 9999 2 24936 7.2884 68.0495 0002855 30.2729 309.2511 1.00271680 48929
UTC large
Height (km)
Speed (km/s)
/
Latitude / Longitude
Inclination (degrees)
Orbital Period (minutes)
Azimuth
Elevation
Range (km)
Doppler Factor

Next 0 passes for location: London (51.5072 / 0.1276)

Sorry there are no passes over London.